Location: Il Ritiro
(43.4167°N, 13.1333°E)
Time: 07:55:12
(UTC+00:00)

CZ-4B DEB - Pass Details

Date: 05 July 2020
Orbit: 436 x 443 km, 97.3° (Epoch: 05 August)

Event Time Altitude Azimuth Distance (km) Brightness Sun altitude
Exits shadow 20:27:05 26° 154° (SSE) 920 5.4 -13.8°
Maximum altitude 20:28:50 69° 76° (ENE) 482 4.4 -14.0°
Drops below altitude 10° 20:32:12 10° 353° (N) 1,579 8.1 -14.4°
Sets 20:34:14 0° 351° (N) 2,455 9.3 -14.6°
